Time,TemperatureF,DewpointF,PressureIn,WindDirection,WindDirectionDegrees,WindSpeedMPH,WindSpeedGustMPH,Humidity,HourlyPrecipIn,Conditions,Clouds,dailyrainin,SoftwareType,DateUTC
2013-01-17 00:02:00,18.0,-99.9,-100.00,NNW,348,21.0,29.0,-999,-99.99,,,-99.99,,2013-01-17 07:02:00,
2013-01-17 00:12:00,18.0,-99.9,-100.00,NNW,348,21.0,29.0,-999,-99.99,,,-99.99,,2013-01-17 07:12:00,
2013-01-17 00:22:00,17.0,-99.9,-100.00,North,351,21.0,31.0,-999,-99.99,,,-99.99,,2013-01-17 07:22:00,
2013-01-17 00:33:00,17.0,-99.9,-100.00,NNW,343,19.0,28.0,-999,-99.99,,,-99.99,,2013-01-17 07:33:00,
2013-01-17 00:43:00,17.0,-99.9,-100.00,NNW,343,19.0,28.0,-999,-99.99,,,-99.99,,2013-01-17 07:43:00,
2013-01-17 00:53:00,17.0,-99.9,-100.00,NNW,336,16.0,24.0,-999,-99.99,,,-99.99,,2013-01-17 07:53:00,
2013-01-17 01:02:00,16.0,-99.9,-100.00,NNW,340,16.0,24.0,-999,-99.99,,,-99.99,,2013-01-17 08:02:00,
2013-01-17 01:12:00,16.0,-99.9,-100.00,NNW,340,16.0,24.0,-999,-99.99,,,-99.99,,2013-01-17 08:12:00,
2013-01-17 01:22:00,16.0,-99.9,-100.00,NNW,339,17.0,22.0,-999,-99.99,,,-99.99,,2013-01-17 08:22:00,
2013-01-17 01:33:00,17.0,-99.9,-100.00,NNW,345,18.0,31.0,-999,-99.99,,,-99.99,,2013-01-17 08:33:00,
2013-01-17 01:44:00,17.0,-99.9,-100.00,NNW,345,18.0,31.0,-999,-99.99,,,-99.99,,2013-01-17 08:44:00,
2013-01-17 01:53:00,17.0,-99.9,-100.00,North,350,18.0,26.0,-999,-99.99,,,-99.99,,2013-01-17 08:53:00,
2013-01-17 02:03:00,17.0,-99.9,-100.00,NNW,348,18.0,28.0,-999,-99.99,,,-99.99,,2013-01-17 09:03:00,
2013-01-17 02:12:00,17.0,-99.9,-100.00,NNW,348,18.0,28.0,-999,-99.99,,,-99.99,,2013-01-17 09:12:00,
2013-01-17 02:22:00,17.0,-99.9,-100.00,North,351,19.0,29.0,-999,-99.99,,,-99.99,,2013-01-17 09:22:00,
2013-01-17 02:33:00,16.0,-99.9,-100.00,North,355,20.0,28.0,-999,-99.99,,,-99.99,,2013-01-17 09:33:00,
2013-01-17 02:43:00,16.0,-99.9,-100.00,North,355,20.0,28.0,-999,-99.99,,,-99.99,,2013-01-17 09:43:00,
2013-01-17 02:53:00,17.0,-99.9,-100.00,North,353,19.0,24.0,-999,-99.99,,,-99.99,,2013-01-17 09:53:00,
2013-01-17 03:02:00,16.0,-99.9,-100.00,North,350,19.0,26.0,-999,-99.99,,,-99.99,,2013-01-17 10:02:00,
2013-01-17 03:12:00,16.0,-99.9,-100.00,North,350,19.0,26.0,-999,-99.99,,,-99.99,,2013-01-17 10:12:00,
2013-01-17 03:22:00,16.0,-99.9,-100.00,North,350,20.0,29.0,-999,-99.99,,,-99.99,,2013-01-17 10:22:00,
2013-01-17 03:33:00,16.0,-99.9,-100.00,NNW,341,17.0,22.0,-999,-99.99,,,-99.99,,2013-01-17 10:33:00,
2013-01-17 03:43:00,16.0,-99.9,-100.00,NNW,341,17.0,22.0,-999,-99.99,,,-99.99,,2013-01-17 10:43:00,
2013-01-17 03:53:00,16.0,-99.9,-100.00,NNW,335,17.0,24.0,-999,-99.99,,,-99.99,,2013-01-17 10:53:00,
2013-01-17 04:03:00,16.0,-99.9,-100.00,NNW,331,17.0,21.0,-999,-99.99,,,-99.99,,2013-01-17 11:03:00,
2013-01-17 04:12:00,16.0,-99.9,-100.00,NNW,331,17.0,21.0,-999,-99.99,,,-99.99,,2013-01-17 11:12:00,
2013-01-17 04:23:00,17.0,-99.9,-100.00,NNW,329,19.0,24.0,-999,-99.99,,,-99.99,,2013-01-17 11:23:00,
2013-01-17 04:33:00,16.0,-99.9,-100.00,NNW,328,17.0,24.0,-999,-99.99,,,-99.99,,2013-01-17 11:33:00,
2013-01-17 04:43:00,16.0,-99.9,-100.00,NNW,328,17.0,24.0,-999,-99.99,,,-99.99,,2013-01-17 11:43:00,
2013-01-17 04:53:00,16.0,-99.9,-100.00,NW,322,15.0,22.0,-999,-99.99,,,-99.99,,2013-01-17 11:53:00,
2013-01-17 05:03:00,18.0,-99.9,-100.00,NW,320,16.0,22.0,-999,-99.99,,,-99.99,,2013-01-17 12:03:00,
2013-01-17 05:12:00,18.0,-99.9,-100.00,NW,320,16.0,22.0,-999,-99.99,,,-99.99,,2013-01-17 12:12:00,
2013-01-17 05:23:00,17.0,-99.9,-100.00,NNW,328,18.0,26.0,-999,-99.99,,,-99.99,,2013-01-17 12:23:00,
2013-01-17 05:33:00,17.0,-99.9,-100.00,NW,316,16.0,21.0,-999,-99.99,,,-99.99,,2013-01-17 12:33:00,
2013-01-17 05:43:00,17.0,-99.9,-100.00,NW,316,16.0,21.0,-999,-99.99,,,-99.99,,2013-01-17 12:43:00,
2013-01-17 05:53:00,17.0,-99.9,-100.00,NW,316,15.0,19.0,-999,-99.99,,,-99.99,,2013-01-17 12:53:00,
2013-01-17 06:03:00,17.0,-99.9,-100.00,NW,324,14.0,18.0,-999,-99.99,,,-99.99,,2013-01-17 13:03:00,
2013-01-17 06:13:00,17.0,-99.9,-100.00,NW,324,14.0,18.0,-999,-99.99,,,-99.99,,2013-01-17 13:13:00,
2013-01-17 06:23:00,17.0,-99.9,-100.00,NNW,331,15.0,21.0,-999,-99.99,,,-99.99,,2013-01-17 13:23:00,
2013-01-17 06:33:00,17.0,-99.9,-100.00,NNW,337,15.0,19.0,-999,-99.99,,,-99.99,,2013-01-17 13:33:00,
2013-01-17 06:43:00,17.0,-99.9,-100.00,NNW,337,15.0,19.0,-999,-99.99,,,-99.99,,2013-01-17 13:43:00,
2013-01-17 06:53:00,17.0,-99.9,-100.00,North,354,16.0,26.0,-999,-99.99,,,-99.99,,2013-01-17 13:53:00,
2013-01-17 07:03:00,19.0,-99.9,-100.00,North,1,17.0,25.0,-999,-99.99,,,-99.99,,2013-01-17 14:03:00,
2013-01-17 07:13:00,19.0,-99.9,-100.00,North,1,17.0,25.0,-999,-99.99,,,-99.99,,2013-01-17 14:13:00,
2013-01-17 07:23:00,19.0,-99.9,-100.00,North,8,18.0,29.0,-999,-99.99,,,-99.99,,2013-01-17 14:23:00,
2013-01-17 07:33:00,20.0,-99.9,-100.00,North,6,17.0,25.0,-999,-99.99,,,-99.99,,2013-01-17 14:33:00,
2013-01-17 07:43:00,20.0,-99.9,-100.00,North,6,17.0,25.0,-999,-99.99,,,-99.99,,2013-01-17 14:43:00,
2013-01-17 07:53:00,20.0,-99.9,-100.00,North,2,16.0,24.0,-999,-99.99,,,-99.99,,2013-01-17 14:53:00,
2013-01-17 08:03:00,19.0,-99.9,-100.00,NNW,348,15.0,21.0,-999,-99.99,,,-99.99,,2013-01-17 15:03:00,
2013-01-17 08:13:00,19.0,-99.9,-100.00,NNW,348,15.0,21.0,-999,-99.99,,,-99.99,,2013-01-17 15:13:00,
2013-01-17 08:23:00,19.0,-99.9,-100.00,NNW,335,13.0,16.0,-999,-99.99,,,-99.99,,2013-01-17 15:23:00,
2013-01-17 08:33:00,18.0,-99.9,-100.00,NW,310,10.0,19.0,-999,-99.99,,,-99.99,,2013-01-17 15:33:00,
2013-01-17 08:44:00,18.0,-99.9,-100.00,NW,310,10.0,19.0,-999,-99.99,,,-99.99,,2013-01-17 15:44:00,
2013-01-17 08:53:00,18.0,-99.9,-100.00,NW,313,11.0,16.0,-999,-99.99,,,-99.99,,2013-01-17 15:53:00,
2013-01-17 09:03:00,19.0,-99.9,-100.00,NW,306,12.0,18.0,-999,-99.99,,,-99.99,,2013-01-17 16:03:00,
2013-01-17 09:13:00,19.0,-99.9,-100.00,NW,306,12.0,18.0,-999,-99.99,,,-99.99,,2013-01-17 16:13:00,
2013-01-17 09:23:00,18.0,-99.9,-100.00,NW,312,13.0,16.0,-999,-99.99,,,-99.99,,2013-01-17 16:23:00,
2013-01-17 09:34:00,19.0,-99.9,-100.00,NW,312,15.0,19.0,-999,-99.99,,,-99.99,,2013-01-17 16:34:00,
2013-01-17 09:44:00,19.0,-99.9,-100.00,NW,312,15.0,19.0,-999,-99.99,,,-99.99,,2013-01-17 16:44:00,
2013-01-17 09:53:00,19.0,-99.9,-100.00,WNW,291,11.0,16.0,-999,-99.99,,,-99.99,,2013-01-17 16:53:00,
2013-01-17 10:04:00,19.0,-99.9,-100.00,WNW,287,9.0,16.0,-999,-99.99,,,-99.99,,2013-01-17 17:04:00,
2013-01-17 10:13:00,19.0,-99.9,-100.00,WNW,287,9.0,16.0,-999,-99.99,,,-99.99,,2013-01-17 17:13:00,
2013-01-17 10:23:00,19.0,-99.9,-100.00,WNW,287,8.0,15.0,-999,-99.99,,,-99.99,,2013-01-17 17:23:00,
2013-01-17 10:33:00,19.0,-99.9,-100.00,NW,308,8.0,14.0,-999,-99.99,,,-99.99,,2013-01-17 17:33:00,
2013-01-17 10:43:00,19.0,-99.9,-100.00,NW,308,8.0,14.0,-999,-99.99,,,-99.99,,2013-01-17 17:43:00,
2013-01-17 10:54:00,20.0,-99.9,-100.00,West,278,7.0,12.0,-999,-99.99,,,-99.99,,2013-01-17 17:54:00,
2013-01-17 11:04:00,20.0,-99.9,-100.00,West,279,8.0,12.0,-999,-99.99,,,-99.99,,2013-01-17 18:04:00,
2013-01-17 11:13:00,20.0,-99.9,-100.00,West,279,8.0,12.0,-999,-99.99,,,-99.99,,2013-01-17 18:13:00,
2013-01-17 11:23:00,20.0,-99.9,-100.00,WNW,295,9.0,15.0,-999,-99.99,,,-99.99,,2013-01-17 18:23:00,
2013-01-17 11:34:00,20.0,-99.9,-100.00,WNW,303,13.0,16.0,-999,-99.99,,,-99.99,,2013-01-17 18:34:00,
2013-01-17 11:44:00,20.0,-99.9,-100.00,WNW,303,13.0,16.0,-999,-99.99,,,-99.99,,2013-01-17 18:44:00,
2013-01-17 11:54:00,20.0,-99.9,-100.00,WNW,301,13.0,16.0,-999,-99.99,,,-99.99,,2013-01-17 18:54:00,
2013-01-17 12:04:00,20.0,-99.9,-100.00,WNW,294,14.0,18.0,-999,-99.99,,,-99.99,,2013-01-17 19:04:00,
2013-01-17 12:13:00,20.0,-99.9,-100.00,WNW,294,14.0,18.0,-999,-99.99,,,-99.99,,2013-01-17 19:13:00,
2013-01-17 12:23:00,20.0,-99.9,-100.00,WNW,296,15.0,19.0,-999,-99.99,,,-99.99,,2013-01-17 19:23:00,
2013-01-17 12:33:00,21.0,-99.9,-100.00,WNW,291,17.0,21.0,-999,-99.99,,,-99.99,,2013-01-17 19:33:00,
2013-01-17 12:43:00,21.0,-99.9,-100.00,WNW,291,17.0,21.0,-999,-99.99,,,-99.99,,2013-01-17 19:43:00,
2013-01-17 12:54:00,21.0,-99.9,-100.00,WNW,290,16.0,21.0,-999,-99.99,,,-99.99,,2013-01-17 19:54:00,
2013-01-17 13:03:00,21.0,-99.9,-100.00,WNW,291,16.0,24.0,-999,-99.99,,,-99.99,,2013-01-17 20:03:00,
2013-01-17 13:13:00,21.0,-99.9,-100.00,WNW,291,16.0,24.0,-999,-99.99,,,-99.99,,2013-01-17 20:13:00,
2013-01-17 13:23:00,20.0,-99.9,-100.00,WNW,290,16.0,22.0,-999,-99.99,,,-99.99,,2013-01-17 20:23:00,
2013-01-17 13:34:00,20.0,-99.9,-100.00,WNW,290,16.0,22.0,-999,-99.99,,,-99.99,,2013-01-17 20:34:00,
2013-01-17 13:44:00,20.0,-99.9,-100.00,WNW,290,16.0,22.0,-999,-99.99,,,-99.99,,2013-01-17 20:44:00,
2013-01-17 13:54:00,20.0,-99.9,-100.00,West,281,15.0,21.0,-999,-99.99,,,-99.99,,2013-01-17 20:54:00,
2013-01-17 14:03:00,20.0,-99.9,-100.00,West,279,16.0,19.0,-999,-99.99,,,-99.99,,2013-01-17 21:03:00,
2013-01-17 14:13:00,20.0,-99.9,-100.00,West,279,16.0,19.0,-999,-99.99,,,-99.99,,2013-01-17 21:13:00,
2013-01-17 14:24:00,20.0,-99.9,-100.00,WNW,283,17.0,21.0,-999,-99.99,,,-99.99,,2013-01-17 21:24:00,
2013-01-17 14:34:00,20.0,-99.9,-100.00,West,276,16.0,22.0,-999,-99.99,,,-99.99,,2013-01-17 21:34:00,
2013-01-17 14:43:00,20.0,-99.9,-100.00,West,276,16.0,22.0,-999,-99.99,,,-99.99,,2013-01-17 21:43:00,
2013-01-17 14:54:00,20.0,-99.9,-100.00,West,274,16.0,21.0,-999,-99.99,,,-99.99,,2013-01-17 21:54:00,
2013-01-17 15:04:00,19.0,-99.9,-100.00,West,279,17.0,24.0,-999,-99.99,,,-99.99,,2013-01-17 22:04:00,
2013-01-17 15:12:00,19.0,-99.9,-100.00,West,279,17.0,24.0,-999,-99.99,,,-99.99,,2013-01-17 22:12:00,
2013-01-17 15:23:00,19.0,-99.9,-100.00,West,277,17.0,22.0,-999,-99.99,,,-99.99,,2013-01-17 22:23:00,
2013-01-17 15:33:00,19.0,-99.9,-100.00,West,276,17.0,21.0,-999,-99.99,,,-99.99,,2013-01-17 22:33:00,
2013-01-17 15:43:00,19.0,-99.9,-100.00,West,276,17.0,21.0,-999,-99.99,,,-99.99,,2013-01-17 22:43:00,
2013-01-17 15:53:00,18.0,-99.9,-100.00,West,274,17.0,22.0,-999,-99.99,,,-99.99,,2013-01-17 22:53:00,
2013-01-17 16:03:00,18.0,-99.9,-100.00,West,272,17.0,22.0,-999,-99.99,,,-99.99,,2013-01-17 23:03:00,
2013-01-17 16:12:00,18.0,-99.9,-100.00,West,272,17.0,22.0,-999,-99.99,,,-99.99,,2013-01-17 23:12:00,
2013-01-17 16:23:00,18.0,-99.9,-100.00,West,274,16.0,24.0,-999,-99.99,,,-99.99,,2013-01-17 23:23:00,
2013-01-17 16:33:00,18.0,-99.9,-100.00,West,274,16.0,24.0,-999,-99.99,,,-99.99,,2013-01-17 23:33:00,
2013-01-17 16:43:00,18.0,-99.9,-100.00,West,274,16.0,24.0,-999,-99.99,,,-99.99,,2013-01-17 23:43:00,
2013-01-17 16:53:00,17.0,-99.9,-100.00,West,274,15.0,21.0,-999,-99.99,,,-99.99,,2013-01-17 23:53:00,
2013-01-17 17:03:00,17.0,-99.9,-100.00,West,276,17.0,22.0,-999,-99.99,,,-99.99,,2013-01-18 00:03:00,
2013-01-17 17:13:00,17.0,-99.9,-100.00,West,276,17.0,22.0,-999,-99.99,,,-99.99,,2013-01-18 00:13:00,
2013-01-17 17:23:00,17.0,-99.9,-100.00,West,272,16.0,19.0,-999,-99.99,,,-99.99,,2013-01-18 00:23:00,
2013-01-17 17:33:00,17.0,-99.9,-100.00,West,272,16.0,19.0,-999,-99.99,,,-99.99,,2013-01-18 00:33:00,
2013-01-17 17:43:00,17.0,-99.9,-100.00,West,272,16.0,19.0,-999,-99.99,,,-99.99,,2013-01-18 00:43:00,
2013-01-17 17:53:00,16.0,-99.9,-100.00,West,272,17.0,22.0,-999,-99.99,,,-99.99,,2013-01-18 00:53:00,
2013-01-17 18:03:00,16.0,-99.9,-100.00,West,270,18.0,22.0,-999,-99.99,,,-99.99,,2013-01-18 01:03:00,
2013-01-17 18:13:00,16.0,-99.9,-100.00,West,270,18.0,22.0,-999,-99.99,,,-99.99,,2013-01-18 01:13:00,
2013-01-17 18:23:00,16.0,-99.9,-100.00,West,271,19.0,22.0,-999,-99.99,,,-99.99,,2013-01-18 01:23:00,
2013-01-17 18:33:00,16.0,-99.9,-100.00,West,272,19.0,22.0,-999,-99.99,,,-99.99,,2013-01-18 01:33:00,
2013-01-17 18:43:00,16.0,-99.9,-100.00,West,272,19.0,22.0,-999,-99.99,,,-99.99,,2013-01-18 01:43:00,
2013-01-17 18:53:00,16.0,-99.9,-100.00,West,275,19.0,24.0,-999,-99.99,,,-99.99,,2013-01-18 01:53:00,
2013-01-17 19:03:00,16.0,-99.9,-100.00,West,277,19.0,24.0,-999,-99.99,,,-99.99,,2013-01-18 02:03:00,
2013-01-17 19:12:00,16.0,-99.9,-100.00,West,277,19.0,24.0,-999,-99.99,,,-99.99,,2013-01-18 02:12:00,
2013-01-17 19:23:00,17.0,-99.9,-100.00,West,278,20.0,24.0,-999,-99.99,,,-99.99,,2013-01-18 02:23:00,
2013-01-17 19:33:00,17.0,-99.9,-100.00,West,281,20.0,25.0,-999,-99.99,,,-99.99,,2013-01-18 02:33:00,
2013-01-17 19:43:00,17.0,-99.9,-100.00,West,281,20.0,25.0,-999,-99.99,,,-99.99,,2013-01-18 02:43:00,
2013-01-17 19:53:00,17.0,-99.9,-100.00,West,279,20.0,24.0,-999,-99.99,,,-99.99,,2013-01-18 02:53:00,
2013-01-17 20:03:00,17.0,-99.9,-100.00,West,280,20.0,25.0,-999,-99.99,,,-99.99,,2013-01-18 03:03:00,
2013-01-17 20:13:00,17.0,-99.9,-100.00,West,280,20.0,25.0,-999,-99.99,,,-99.99,,2013-01-18 03:13:00,
2013-01-17 20:23:00,17.0,-99.9,-100.00,West,281,20.0,25.0,-999,-99.99,,,-99.99,,2013-01-18 03:23:00,
2013-01-17 20:33:00,18.0,-99.9,-100.00,WNW,287,20.0,25.0,-999,-99.99,,,-99.99,,2013-01-18 03:33:00,
2013-01-17 20:43:00,18.0,-99.9,-100.00,WNW,287,20.0,25.0,-999,-99.99,,,-99.99,,2013-01-18 03:43:00,
2013-01-17 20:53:00,18.0,-99.9,-100.00,WNW,289,19.0,24.0,-999,-99.99,,,-99.99,,2013-01-18 03:53:00,
2013-01-17 21:03:00,18.0,-99.9,-100.00,WNW,289,18.0,24.0,-999,-99.99,,,-99.99,,2013-01-18 04:03:00,
2013-01-17 21:12:00,18.0,-99.9,-100.00,WNW,289,18.0,24.0,-999,-99.99,,,-99.99,,2013-01-18 04:12:00,
2013-01-17 21:22:00,18.0,-99.9,-100.00,WNW,289,19.0,24.0,-999,-99.99,,,-99.99,,2013-01-18 04:22:00,
2013-01-17 21:33:00,18.0,-99.9,-100.00,WNW,285,18.0,24.0,-999,-99.99,,,-99.99,,2013-01-18 04:33:00,
2013-01-17 21:43:00,18.0,-99.9,-100.00,WNW,285,18.0,24.0,-999,-99.99,,,-99.99,,2013-01-18 04:43:00,
2013-01-17 21:53:00,18.0,-99.9,-100.00,WNW,289,18.0,24.0,-999,-99.99,,,-99.99,,2013-01-18 04:53:00,
2013-01-17 22:04:00,17.0,-99.9,-100.00,WNW,288,17.0,22.0,-999,-99.99,,,-99.99,,2013-01-18 05:04:00,
2013-01-17 22:12:00,17.0,-99.9,-100.00,WNW,288,17.0,22.0,-999,-99.99,,,-99.99,,2013-01-18 05:12:00,
2013-01-17 22:22:00,18.0,-99.9,-100.00,WNW,296,17.0,22.0,-999,-99.99,,,-99.99,,2013-01-18 05:22:00,
2013-01-17 22:34:00,18.0,-99.9,-100.00,WNW,296,17.0,24.0,-999,-99.99,,,-99.99,,2013-01-18 05:34:00,
2013-01-17 22:43:00,18.0,-99.9,-100.00,WNW,296,17.0,24.0,-999,-99.99,,,-99.99,,2013-01-18 05:43:00,
2013-01-17 22:53:00,18.0,-99.9,-100.00,WNW,298,18.0,25.0,-999,-99.99,,,-99.99,,2013-01-18 05:53:00,
2013-01-17 23:03:00,18.0,-99.9,-100.00,NW,304,20.0,26.0,-999,-99.99,,,-99.99,,2013-01-18 06:03:00,
2013-01-17 23:12:00,18.0,-99.9,-100.00,NW,304,20.0,26.0,-999,-99.99,,,-99.99,,2013-01-18 06:12:00,
2013-01-17 23:23:00,18.0,-99.9,-100.00,WNW,297,19.0,26.0,-999,-99.99,,,-99.99,,2013-01-18 06:23:00,
2013-01-17 23:33:00,18.0,-99.9,-100.00,WNW,300,19.0,25.0,-999,-99.99,,,-99.99,,2013-01-18 06:33:00,
2013-01-17 23:43:00,18.0,-99.9,-100.00,WNW,300,19.0,25.0,-999,-99.99,,,-99.99,,2013-01-18 06:43:00,
2013-01-17 23:53:00,18.0,-99.9,-100.00,NW,305,19.0,29.0,-999,-99.99,,,-99.99,,2013-01-18 06:53:00,